Tracking 19827 objects as of 22-Aug-2019
HD Live streaming from Space Station
objects crossing your sky now

COSMOS 374

Track COSMOS 374 now!
10-day predictions
COSMOS 374 is classified as:


NORAD ID: 4594
Int'l Code: 1970-089A
Perigee: 577.3 km
Apogee: 2,000.9 km
Inclination: 62.9 °
Period: 111.2 minutes
Semi major axis: 7660 km
RCS: 0.5589 m2 (medium)
Launch date: October 23, 1970
Source: Commonwealth of Independent States (former USSR) (CIS)
Launch site: TYURATAM MISSILE AND SPACE COMPLEX (TTMTR)
aabbcc
Your satellite tracking list
Your tracking list is empty




NASA's NSSDC Master Catalog

Two Line Element Set (TLE):
1  4594U 70089A   19233.88661619 -.00000078 +00000-0 +10773-4 0  9997
2  4594 062.9491 055.1177 0929216 193.3030 164.1860 12.94943996346251
Source of the keplerian elements: AFSPC